Flag for U.S.A. Weather past 2 weeks in Mansfield, Texas, U.S.A.

Now
99 °F

Sunny.


Feels Like: 100 °F
Forecast: 77 / 97 °F
Wind: 14 mph from South

Location: Burleson-Rendon

Current Time: Aug 21, 2014 at 5:47:47 PM

Latest Report: Aug 21, 2014 at 4:50 PM


Visibility: 7 mi

Pressure: 29.95 "Hg

Humidity: 31%

Dew point: 63 °F

Location of MansfieldLocation

Historic Weather in Mansfield — Graph

°F

Mansfield temperature yesterday

Maximum temperature yesterday: 97 °F (at 2:50 PM)
Minimum temperature yesterday: 78 °F (at 2:35 AM)
Average temperature yesterday: 85 °F

Past Weeks' High & Low Weather Summary

 TemperatureHumidityPressure
High106 °F (Aug 8, 3:46 PM)94% (Aug 17, 10:46 AM)30.14 "Hg (Aug 17, 10:46 AM)
Low63 °F (Aug 13, 6:15 AM)20% (Aug 12, 1:46 PM)29.81 "Hg (Aug 7, 6:50 PM)
Average83 °F58%29.97 "Hg
* Reported Aug 6 4:54 PM — Aug 21 4:50 PM, Mansfield, Weather by CustomWeather, © 2014

Note: Actual official high and low records may vary slightly from our data, if they occured in-between our weather recording intervals... More about our weather records

Advertising

Mansfield weather history for previous 24 hours

 ConditionsComfort  
Time TempWeatherWind HumidityBarometerVisibility
4:50 PM
Aug 21
99 °FSunny.14 mph31%29.95 "Hg7 mi
3:51 PM99 °FSunny.14 mph33%29.97 "Hg7 mi
2:47 PM97 °FPassing clouds.20 mph37%29.99 "Hg7 mi
1:52 PM97 °FPassing clouds.16 mph39%30.01 "Hg7 mi
12:55 PM93 °FScattered clouds.12 mph47%30.03 "Hg7 mi
11:53 AM91 °FPartly sunny.14 mph52%30.05 "Hg7 mi
10:46 AM88 °FPartly sunny.10 mph59%30.05 "Hg7 mi
9:51 AM86 °FScattered clouds.13 mph66%30.04 "Hg7 mi
8:54 AM82 °FScattered clouds.10 mph74%30.05 "Hg7 mi
7:51 AM79 °FClear.9 mph84%30.04 "Hg7 mi
6:50 AM79 °FClear.6 mph79%30.02 "Hg7 mi
6:35 AM78 °FClear.8 mph83%30.02 "Hg10 mi
6:15 AM78 °FClear.9 mph82%30.02 "Hg10 mi
5:55 AM78 °FClear.10 mph81%30.00 "Hg10 mi
5:35 AM78 °FClear.12 mph80%30.00 "Hg10 mi
5:15 AM78 °FClear.15 mph79%29.99 "Hg10 mi
4:55 AM79 °FClear.12 mph79%29.99 "Hg10 mi
4:35 AM79 °FClear.9 mph79%29.98 "Hg10 mi
4:15 AM79 °FClear.12 mph78%29.98 "Hg10 mi
3:55 AM80 °FClear.9 mph76%29.97 "Hg10 mi
3:35 AM80 °FClear.9 mph74%29.97 "Hg10 mi
3:15 AM81 °FClear.10 mph73%29.97 "Hg10 mi
2:55 AM81 °FClear.14 mph72%29.97 "Hg10 mi
2:35 AM81 °FClear.13 mph70%29.97 "Hg10 mi
2:15 AM82 °FClear.13 mph70%29.98 "Hg10 mi
1:55 AM82 °FClear.10 mph70%29.98 "Hg10 mi
1:35 AM82 °FClear.10 mph69%29.98 "Hg10 mi
1:15 AM82 °FClear.12 mph69%29.97 "Hg10 mi
12:55 AM82 °FClear.12 mph68%29.97 "Hg10 mi
12:35 AM82 °FClear.13 mph66%29.97 "Hg10 mi
12:15 AM83 °FClear.13 mph65%29.97 "Hg10 mi
11:55 PM
Aug 20
83 °FClear.12 mph65%29.97 "Hg10 mi
11:35 PM83 °FClear.10 mph63%29.97 "Hg10 mi
11:15 PM84 °FClear.9 mph61%29.97 "Hg10 mi
10:55 PM85 °FClear.10 mph59%29.97 "Hg10 mi
10:35 PM85 °FClear.7 mph57%29.97 "Hg10 mi
10:15 PM86 °FClear.9 mph55%29.96 "Hg10 mi
9:55 PM87 °FWarm.12 mph53%29.95 "HgN/A
9:35 PM87 °FClear.10 mph54%29.94 "Hg10 mi
9:15 PM88 °FClear.14 mph51%29.93 "Hg10 mi
8:55 PM88 °FSunny.6 mph49%29.92 "Hg10 mi
8:15 PM87 °FSunny.No wind50%29.90 "Hg10 mi
7:55 PM90 °FSunny.3 mph43%29.90 "Hg10 mi
7:35 PM92 °FSunny.6 mph39%29.90 "Hg10 mi
6:49 PM95 °FSunny.13 mph34%29.90 "Hg7 mi
5:54 PM97 °FPassing clouds.9 mph32%29.90 "Hg7 mi
Weather by CustomWeather, © 2014

See weather overviewHow to use our weather pages